[[{"header":{"parameterUnit":"m.s-1","parameterCategory":1,"la1":30.2991,"la2":30.254,"lo1":-89.0895,"lo2":-89.0444,"dy":0.0017,"dx":0.0017,"nx":28,"ny":28,"refTime":"2023-08-27T09:00:00:Z","depth":0,"parameterNumber":2,"parameterNumberName":"U-component_of_WINDS"},"data":[0,0,0,0,0,0,0,0,0,0,0,0,0,0,0,0,0,0,0,0,0,0,0,0,0,0,0,0,0,0,0,0,0,0,0,0,0,0,0,0,0,0,0,0,0,0,0,0,0,0,0,0,0,0,0,0,0,0,1.334,1.334,0,1.3386,1.3386,1.3387,1.3325,1.3323,1.332,1.3318,1.3371,1.3374,1.3378,0,0,0,0,0,0,0,0,0,0,0,0,0,1.3202,1.3204,1.334,1.334,1.3341,1.3386,1.3386,1.3387,1.3325,1.3323,1.332,1.3317,1.337,1.3374,1.3378,0,0,0,0,0,0,0,0,0,0,0,0,0,1.3256,1.3205,1.334,1.3315,1.3314,1.3386,1.3386,1.3387,1.3326,1.3323,1.3319,1.3316,1.3368,1.3373,1.3378,1.3478,0,0,1.3394,1.3397,0,0,0,0,0,0,0,0,1.3253,1.3261,1.3318,1.3317,1.3315,1.3346,1.3357,1.3418,1.3327,1.3321,1.3318,1.3314,1.3366,1.3371,1.3387,1.348,1.3483,1.3395,1.3398,1.34,1.3402,0,0,0,0,0,0,0,1.3249,1.3259,1.3358,1.3319,1.3317,1.3303,1.3307,1.3368,1.3362,1.3322,1.3317,1.3323,1.3364,1.3382,1.3388,1.3483,1.3395,1.3399,1.3403,1.3405,1.3659,1.3663,0,0,0,0,0,0,1.3248,1.3256,1.3357,1.3359,1.3275,1.3308,1.3313,1.334,1.3361,1.3361,1.3326,1.332,1.3375,1.3382,1.3389,1.3506,1.34,1.3405,1.3408,1.3656,1.366,1.3664,0,0,0,0,0,0,1.3245,1.3258,1.3355,1.3307,1.3318,1.3314,1.3345,1.3342,1.336,1.3364,1.3363,1.3345,1.3372,1.3382,1.3456,1.3507,1.3407,1.3412,1.3651,1.3657,1.3662,1.3741,0,0,0,0,0,0,1.3242,1.3257,1.3294,1.3308,1.3321,1.342,1.3348,1.3346,1.3369,1.3362,1.3382,1.3382,1.3371,1.3448,1.3461,1.3513,1.3416,1.3647,1.3654,1.366,1.3734,1.3749,1.3761,0,0,0,0,0,1.3237,1.3316,1.3296,1.3309,1.3367,1.3423,1.343,1.3413,1.3373,1.3411,1.3413,1.3382,1.3499,1.3456,1.347,1.3524,1.3643,1.3652,1.366,1.3728,1.3746,1.3761,0,0,0,0,0,0,1.3311,1.3317,1.3296,1.3381,1.3402,1.3412,1.3459,1.3433,1.3466,1.3459,1.3438,1.3443,1.3521,1.353,1.3482,1.3621,1.3565,1.3576,1.3612,1.3629,1.3643,1.3639,1.3421,0,0,0,0,0,1.3336,1.338,1.3384,1.3459,1.347,1.3463,1.3487,1.3472,1.3493,1.3501,1.3509,1.3532,1.3574,1.3602,1.3641,1.3735,1.3738,1.3779,1.3792,1.3804,1.3814,1.3863,1.3881,1.3691,1.3691,1.3691,0,0,1.3391,1.34,1.3429,1.3474,1.3488,1.3534,1.3471,1.3523,1.3557,1.351,1.3579,1.3586,1.361,1.3693,1.3731,1.3703,1.3867,1.3814,1.3823,1.3827,1.3873,1.3891,1.3907,1.3696,1.3695,1.3695,0,0,1.3514,1.3525,1.3588,1.3603,1.3624,1.3618,1.3633,1.3647,1.3649,1.3718,1.3683,1.3724,1.3797,1.3815,1.3834,1.3961,1.3933,1.3975,1.4046,1.4094,1.4109,1.4123,1.4168,1.4184,1.3985,1.3985,1.3985,0,1.3579,1.3646,1.3625,1.3678,1.3699,1.3656,1.372,1.3736,1.377,1.3785,1.3753,1.3842,1.3856,1.3942,1.3973,1.399,1.4007,1.3972,1.4109,1.4122,1.4134,1.4176,1.4193,1.399,1.3989,1.3989,1.3988,0,1.3725,1.3772,1.3821,1.3852,1.3878,1.3937,1.3925,1.3954,1.3937,1.3935,1.4005,1.4019,1.4059,1.4079,1.4063,1.4163,1.4145,1.4112,1.4055,1.4157,1.4197,1.4213,1.3997,1.3995,1.3993,1.3992,0,0,1.3897,1.3913,1.3932,1.3944,1.3964,1.4,1.4057,1.4094,1.4119,1.4144,1.4191,1.4253,1.4221,1.4242,1.4228,1.4271,1.437,1.4231,1.4232,1.4256,1.448,1.4505,1.4525,1.4351,1.4354,1.4357,1.4478,0,1.4019,1.4115,1.4096,1.4191,1.4233,1.4193,1.4242,1.426,1.4259,1.4296,1.4296,1.4339,1.4294,1.4307,1.4347,1.4349,1.4414,1.434,1.4396,1.4398,1.4391,1.4545,1.4572,1.4686,1.4493,1.4496,1.4498,0,1.4174,1.4201,1.4299,1.431,1.4327,1.4372,1.4404,1.444,1.4459,1.4455,1.4478,1.4456,1.4513,1.4455,1.4534,1.4484,1.4505,1.451,1.4514,1.4518,1.4454,1.4554,1.4722,1.4739,1.4522,1.452,1.4519,0,1.4288,1.435,1.4416,1.4428,1.4443,1.4475,1.4483,1.4499,1.4522,1.455,1.4565,1.4601,1.462,1.4649,1.4637,1.4596,1.4718,1.4659,1.4717,1.4718,1.4745,1.4743,1.4919,1.4759,1.4759,1.4759,1.4758,0,1.4426,1.4487,1.4467,1.4508,1.4576,1.4554,1.4622,1.4625,1.4639,1.468,1.4648,1.4688,1.4669,1.4708,1.47,1.4766,1.4775,1.4774,1.4771,1.4777,1.4777,1.4791,1.4783,1.4763,1.4762,1.4761,1.4761,0,1.4565,1.4554,1.4623,1.463,1.4634,1.4683,1.469,1.4728,1.4724,1.4777,1.4788,1.4783,1.4827,1.4817,1.4866,1.486,1.4943,1.493,1.4936,1.4933,1.4991,1.4985,1.5181,1.5206,1.5031,1.5032,1.5034,0,1.4654,1.4699,1.4711,1.4735,1.4745,1.4785,1.4807,1.4788,1.4813,1.4837,1.4873,1.4913,1.4944,1.5016,1.5018,1.5055,1.5043,1.5109,1.5048,1.5052,1.5043,1.504,1.5045,1.5121,1.5123,1.5124,1.5126,0,1.4812,1.4803,1.4836,1.4867,1.4895,1.4919,1.494,1.4962,1.4944,1.4974,1.5017,1.5041,1.509,1.513,1.5164,1.5173,1.5147,1.5145,1.516,1.5166,1.5167,1.5167,1.4968,1.514,1.5139,1.5138,1.5137,1.5136,1.4928,1.4966,1.4979,1.5017,1.503,1.505,1.5086,1.5086,1.5121,1.5157,1.5144,1.5193,1.521,1.5253,1.5266,1.5305,1.528,1.5303,1.5308,1.5314,1.5321,1.5161,1.5311,1.5311,1.531,1.531,1.531,0,1.5083,1.5089,1.5124,1.5153,1.5183,1.5153,1.5175,1.5202,1.5245,1.5262,1.5293,1.5342,1.5381,1.5385,1.5422,1.5452,1.5441,1.5462,1.546,1.5463,1.5341,1.5324,1.5471,1.5471,1.5471,1.5471,1.5471,1.5471,1.5167,1.523,1.5224,1.5293,1.5299,1.5345,1.536,1.5378,1.5392,1.5447,1.5479,1.548,1.5492,1.5529,1.5564,1.5564,1.5579,1.5605,1.5601,1.5487,1.5471,1.5456,1.544,1.5609,1.5609,1.5719,1.572,1.5721]},{"header":{"parameterUnit":"m.s-1","parameterCategory":1,"la1":30.2991,"la2":30.254,"lo1":-89.0895,"lo2":-89.0444,"dy":0.0017,"dx":0.0017,"nx":28,"ny":28,"refTime":"2023-08-27T09:00:00:Z","depth":0,"parameterNumber":3,"parameterNumberName":"V-component_of_WINDS"},"data":[0,0,0,0,0,0,0,0,0,0,0,0,0,0,0,0,0,0,0,0,0,0,0,0,0,0,0,0,0,0,0,0,0,0,0,0,0,0,0,0,0,0,0,0,0,0,0,0,0,0,0,0,0,0,0,0,0,0,4.1071,4.1073,0,4.1227,4.1228,4.123,4.1222,4.122,4.1218,4.1216,4.1369,4.1375,4.1381,0,0,0,0,0,0,0,0,0,0,0,0,0,4.0761,4.0767,4.1071,4.1073,4.1075,4.1226,4.1228,4.123,4.1223,4.122,4.1217,4.1215,4.1367,4.1374,4.1382,0,0,0,0,0,0,0,0,0,0,0,0,0,4.0904,4.0769,4.1071,4.1089,4.1093,4.1226,4.1228,4.1231,4.1223,4.122,4.1217,4.1213,4.1365,4.1373,4.1383,4.1506,0,0,4.1411,4.1415,0,0,0,0,0,0,0,0,4.0896,4.0915,4.1085,4.1088,4.1092,4.1202,4.1175,4.1323,4.1224,4.1173,4.1216,4.1212,4.1316,4.1329,4.1365,4.1513,4.1519,4.1411,4.1417,4.1421,4.1424,0,0,0,0,0,0,0,4.0886,4.0908,4.1132,4.1087,4.1092,4.1088,4.1105,4.1203,4.1261,4.1178,4.1177,4.1196,4.1317,4.1356,4.1368,4.1522,4.1411,4.1419,4.1425,4.1429,4.1777,4.1781,0,0,0,0,0,0,4.0873,4.09,4.1127,4.1137,4.0984,4.1096,4.1115,4.117,4.126,4.1271,4.1199,4.1195,4.1342,4.1358,4.1374,4.1523,4.1421,4.143,4.1435,4.1773,4.1778,4.1782,0,0,0,0,0,0,4.0866,4.0893,4.1121,4.1019,4.1047,4.1105,4.1167,4.1175,4.1214,4.1276,4.1286,4.1229,4.134,4.1361,4.1473,4.1528,4.1434,4.1442,4.1769,4.1775,4.178,4.1824,0,0,0,0,0,0,4.0857,4.0891,4.094,4.102,4.1053,4.122,4.117,4.118,4.123,4.1227,4.1307,4.1316,4.1339,4.1459,4.1482,4.1539,4.1449,4.1764,4.1772,4.1778,4.1817,4.183,4.1841,0,0,0,0,0,4.0846,4.0944,4.0942,4.097,4.1116,4.1223,4.1242,4.1267,4.1235,4.1283,4.1323,4.1314,4.1519,4.1471,4.1497,4.1557,4.1761,4.177,4.1778,4.1812,4.1828,4.1841,0,0,0,0,0,0,4.0867,4.0955,4.0954,4.1081,4.1145,4.1222,4.1284,4.1283,4.1355,4.1349,4.1376,4.1394,4.1506,4.1543,4.1488,4.1681,4.1635,4.1649,4.1653,4.1668,4.1679,4.1668,4.1457,0,0,0,0,0,4.0887,4.0969,4.1041,4.1146,4.1178,4.1226,4.1273,4.1288,4.1354,4.138,4.1428,4.1491,4.157,4.1621,4.1697,4.1823,4.1839,4.1877,4.1889,4.1898,4.1909,4.1978,4.1996,4.181,4.181,4.1809,0,0,4.0928,4.0986,4.1036,4.1152,4.1203,4.1285,4.1248,4.1337,4.1398,4.1393,4.1503,4.154,4.1612,4.1732,4.1787,4.1766,4.1965,4.1909,4.1916,4.1922,4.1989,4.2006,4.2022,4.1815,4.1814,4.1813,0,0,4.1044,4.1098,4.1191,4.1244,4.1322,4.1353,4.1375,4.1453,4.1478,4.1589,4.1587,4.1658,4.1793,4.1845,4.1888,4.2024,4.2018,4.2048,4.2109,4.2175,4.219,4.2203,4.2251,4.2268,4.2059,4.206,4.206,0,4.1085,4.1211,4.1239,4.1329,4.1379,4.1381,4.1475,4.1523,4.1622,4.1655,4.1631,4.18,4.1849,4.198,4.2014,4.2049,4.2074,4.2039,4.2186,4.2199,4.2212,4.2258,4.2276,4.2063,4.2062,4.2062,4.2062,0,4.1257,4.1344,4.141,4.1507,4.1565,4.1656,4.1696,4.175,4.176,4.1792,4.1904,4.1963,4.205,4.2082,4.2092,4.2215,4.22,4.2181,4.2135,4.2232,4.2276,4.2294,4.2067,4.2066,4.2065,4.2064,0,0,4.1391,4.1503,4.1526,4.157,4.1657,4.1724,4.1814,4.1902,4.1948,4.2015,4.2091,4.2206,4.2188,4.2238,4.2253,4.2311,4.2415,4.2285,4.2287,4.2306,4.2554,4.2567,4.2588,4.2411,4.2415,4.2418,4.2547,0,4.1516,4.1679,4.1707,4.1849,4.1929,4.1932,4.201,4.2071,4.2104,4.2175,4.221,4.2291,4.2263,4.2293,4.2351,4.239,4.2465,4.2381,4.248,4.2484,4.2462,4.2611,4.2625,4.2745,4.2565,4.2568,4.257,0,4.1684,4.1758,4.1909,4.1985,4.2019,4.209,4.2172,4.2241,4.2309,4.2329,4.2385,4.2393,4.2485,4.2436,4.2563,4.2505,4.2547,4.2573,4.2578,4.2588,4.2532,4.2624,4.2784,4.2802,4.2597,4.2595,4.2593,0,4.1766,4.1903,4.2011,4.2049,4.214,4.2189,4.2229,4.2294,4.2345,4.2416,4.2449,4.2529,4.2573,4.2634,4.2663,4.2625,4.2787,4.2741,4.2805,4.2804,4.2839,4.2836,4.3008,4.2867,4.2866,4.2866,4.2866,0,4.1903,4.1995,4.2049,4.2116,4.2218,4.2248,4.2348,4.2386,4.2444,4.2516,4.2523,4.259,4.2624,4.2696,4.2719,4.282,4.284,4.2857,4.2862,4.2857,4.2854,4.2884,4.2876,4.2871,4.287,4.2869,4.2868,0,4.2011,4.2052,4.217,4.2247,4.2268,4.234,4.2405,4.2469,4.2502,4.2593,4.2616,4.2667,4.2752,4.2787,4.2891,4.2906,4.3022,4.3021,4.3,4.3001,4.3063,4.3056,4.3259,4.3287,4.3128,4.313,4.3131,0,4.2096,4.2167,4.2252,4.2302,4.2344,4.2425,4.2477,4.2508,4.2562,4.2645,4.2698,4.2784,4.2854,4.299,4.3034,4.3114,4.3114,4.318,4.3126,4.3118,4.3114,4.311,4.3117,4.3189,4.3191,4.3192,4.3193,0,4.2242,4.2258,4.2334,4.2418,4.2481,4.2547,4.2612,4.2652,4.2693,4.2753,4.2841,4.2896,4.3003,4.3087,4.3169,4.3208,4.3207,4.321,4.3229,4.3224,4.3209,4.3217,4.3026,4.3205,4.3204,4.3203,4.3202,4.3202,4.2341,4.2404,4.2474,4.2558,4.2611,4.2671,4.2735,4.2776,4.2851,4.2942,4.2955,4.3049,4.3115,4.3225,4.3267,4.334,4.3323,4.3351,4.3358,4.3364,4.3368,4.3198,4.3355,4.3355,4.3355,4.3354,4.3354,0,4.2486,4.2531,4.2609,4.2701,4.2767,4.2762,4.2834,4.2889,4.2972,4.3034,4.3104,4.3204,4.3286,4.3338,4.342,4.3469,4.347,4.3489,4.3486,4.3494,4.3378,4.3354,4.3486,4.3486,4.3486,4.3486,4.3486,4.3486,4.2569,4.2676,4.2701,4.2833,4.2877,4.2971,4.3012,4.3067,4.3117,4.323,4.3299,4.3333,4.3391,4.3477,4.3552,4.3565,4.3594,4.3614,4.3626,4.3516,4.3503,4.3489,4.3466,4.3621,4.3621,4.3736,4.3737,4.3738]}]]